{"data":{"norad_id":68482,"intl_designator":"2026-067BU","name":"LEMUR-2-SEJONG-3","alt_names":[],"object_type":"PAYLOAD","status":"ACTIVE","operator":null,"country":"GER","launch_date":"2026-03-30","launch_site_code":"AFWTR","launch_vehicle":null,"mission":null,"orbit_class":"UNKNOWN","rcs_meters":null,"size_class":null,"mass_kg":null,"dimensions":null,"purposes":[],"wikipedia_slug":null,"has_3d_model":false,"image_url":null,"decayed_at":null,"tle_current":{"epoch":"2026-05-25T03:24:51.971616Z","epoch_age_seconds":76531,"freshness":"FRESH","line1":"1 68482U 26067BU  26145.14226819  .00002770  00000+0  27351-3 0  9996","line2":"2 68482  97.7555 103.8146 0003073   0.6217 359.5005 14.92756376  8296","mean_motion":14.92756376,"eccentricity":0.0003073,"inclination_deg":97.7555,"raan_deg":103.8146,"arg_perigee_deg":0.6217,"mean_anomaly_deg":359.5005,"bstar":0.00027351,"rev_number":829,"period_min":96.465841523225,"perigee_km":587.20436325189,"apogee_km":591.48657797833,"semimajor_km":6967.4824706151,"source":"CELESTRAK","updated_at":"2026-05-25T13:38:07.852656Z"}}}